ID Time Temp Humidity Light PM2.5 PM10 Voltage Extra Firmware Position Fcnt TTN version Gateways Distance RSSI LSNR Radiosettings
2026-05-03 22:51:54 5.9375°C -3.3125% 3.27V v3 No position 7646 ttn.v3 - -116 -5.5 868.3MHz, SF9BW125, 4/5CR
2026-05-03 22:35:45 6°C -2.375% 3.27V v3 No position 7645 ttn.v3 - -125 -10.25 867.9MHz, SF9BW125, 4/5CR
- -120 -13.25 867.9MHz, SF9BW125, 4/5CR
2026-05-03 21:31:10 6.1875°C 6.0625% 3.27V v3 No position 7641 ttn.v3 - -112 -12.25 867.5MHz, SF9BW125, 4/5CR
2026-05-03 21:15:01 6.625°C 10.75% 3.27V v3 No position 7640 ttn.v3 - -117 -14 868.3MHz, SF9BW125, 4/5CR
2026-05-03 20:58:52 7.125°C 8% 3.27V v3 No position 7639 ttn.v3 - -120 -9.25 867.3MHz, SF9BW125, 4/5CR
2026-05-03 20:42:42 8.3125°C 91.8125% 3.27V v3 No position 7638 ttn.v3 - -120 -10 868.1MHz, SF9BW125, 4/5CR
2026-05-03 20:26:33 9.625°C 78.75% 3.27V v3 No position 7637 ttn.v3 - -120 -12.75 867.1MHz, SF9BW125, 4/5CR
2026-05-03 20:10:23 10.5625°C 75.3125% 3.27V v3 No position 7636 ttn.v3 - -115 -6 868.5MHz, SF9BW125, 4/5CR
- -123 -10 868.5MHz, SF9BW125, 4/5CR
2026-05-03 19:54:12 10.625°C 73.875% 3.27V v3 No position 7635 ttn.v3 - -120 -12.5 867.9MHz, SF9BW125, 4/5CR
2026-05-03 19:38:02 11.3125°C 69.875% 3.27V v3 No position 7634 ttn.v3 - -116 -9 868.3MHz, SF9BW125, 4/5CR
2026-05-03 19:21:51 11.875°C 69.125% 3.27V v3 No position 7633 ttn.v3 - -125 -10.75 867.7MHz, SF9BW125, 4/5CR
2026-05-03 19:05:41 12.1875°C 68.0625% 3.27V v3 No position 7632 ttn.v3 - -126 -12.5 868.1MHz, SF9BW125, 4/5CR
2026-05-03 18:33:19 12.9375°C 66.125% 3.27V v3 No position 7630 ttn.v3 - -119 -5.25 868.5MHz, SF9BW125, 4/5CR
- -115 -5.75 868.5MHz, SF9BW125, 4/5CR
2026-05-03 17:44:46 11.375°C 77.6875% 3.27V v3 No position 7627 ttn.v3 - -118 -2.25 867.1MHz, SF9BW125, 4/5CR
2026-05-03 17:28:36 11.0625°C 80.0625% 3.27V v3 No position 7626 ttn.v3 - -115 -8 868.1MHz, SF9BW125, 4/5CR
- -124 -12.25 868.1MHz, SF9BW125, 4/5CR
2026-05-03 17:12:26 10.6875°C 82.9375% 3.27V v3 No position 7625 ttn.v3 - -121 -12 867.9MHz, SF9BW125, 4/5CR
2026-05-03 15:35:25 10.8125°C 102.562% 3.27V v3 No position 7619 ttn.v3 - -112 -8.75 867.3MHz, SF9BW125, 4/5CR
- -113 -11.75 867.3MHz, SF9BW125, 4/5CR
- -118 -14.25 867.3MHz, SF9BW125, 4/5CR
2026-05-03 15:19:14 10.875°C 95.0625% 3.27V v3 No position 7618 ttn.v3 - -119 -6 868.5MHz, SF9BW125, 4/5CR
- -114 -6.5 868.5MHz, SF9BW125, 4/5CR
2026-05-03 15:03:04 10.9375°C 99.75% 3.27V v3 No position 7617 ttn.v3 - -122 -6.25 867.1MHz, SF9BW125, 4/5CR
2026-05-03 14:46:54 11°C 115.812% 3.27V v3 No position 7616 ttn.v3 - -117 -12.75 868.3MHz, SF9BW125, 4/5CR
2026-05-03 14:30:43 11.3125°C 101.375% 3.27V v3 No position 7615 ttn.v3 - -128 -12 867.9MHz, SF9BW125, 4/5CR
- -115 -12.25 867.9MHz, SF9BW125, 4/5CR
- -120 -13.5 867.9MHz, SF9BW125, 4/5CR
2026-05-03 14:14:33 11.875°C 85.4375% 3.27V v3 No position 7614 ttn.v3 - -118 -6.5 868.1MHz, SF9BW125, 4/5CR
2026-05-03 13:26:01 12.125°C 97% 3.27V v3 No position 7611 ttn.v3 - -113 -8.25 867.5MHz, SF9BW125, 4/5CR
- -120 -14.5 867.5MHz, SF9BW125, 4/5CR
2026-05-03 12:53:40 11.6875°C 116.688% 3.27V v3 No position 7609 ttn.v3 - -120 -5.5 867.3MHz, SF9BW125, 4/5CR
- -116 -5.75 867.3MHz, SF9BW125, 4/5CR
2026-05-03 12:21:20 10.875°C 3.375% 3.27V v3 No position 7607 ttn.v3 - -114 -3 867.1MHz, SF9BW125, 4/5CR
- -123 -9 867.1MHz, SF9BW125, 4/5CR
- -117 -11 867.1MHz, SF9BW125, 4/5CR
2026-05-03 12:05:10 10.75°C 11.875% 3.27V v3 No position 7606 ttn.v3 - -121 -11 868.5MHz, SF9BW125, 4/5CR
2026-05-03 11:48:59 9.6875°C 4.125% 3.27V v3 No position 7605 ttn.v3 - -125 -11.75 867.9MHz, SF9BW125, 4/5CR
- -120 -12.25 867.9MHz, SF9BW125, 4/5CR
2026-05-03 11:16:40 7.9375°C 55.5% 3.27V v3 No position 7603 ttn.v3 - -116 -4 867.7MHz, SF9BW125, 4/5CR
- -124 -8.5 867.7MHz, SF9BW125, 4/5CR
2026-05-03 11:00:31 7.625°C 46.1875% 3.27V v3 No position 7602 ttn.v3 - -114 -10.5 868.1MHz, SF9BW125, 4/5CR
- -114 -12.25 868.1MHz, SF9BW125, 4/5CR
2026-05-03 10:28:13 7.25°C 19.25% 3.27V v3 No position 7600 ttn.v3 - -113 -6.25 868.5MHz, SF9BW125, 4/5CR
- -121 -9.5 868.5MHz, SF9BW125, 4/5CR
2026-05-03 10:12:04 6.875°C 13.6875% 3.27V v3 No position 7599 ttn.v3 - -119 -4.5 867.3MHz, SF9BW125, 4/5CR
2026-05-03 09:39:45 6.5625°C 114.938% 3.27V v3 No position 7597 ttn.v3 - -112 0 867.1MHz, SF9BW125, 4/5CR
- -119 -4 867.1MHz, SF9BW125, 4/5CR
2026-05-03 09:23:36 6.4375°C 108.25% 3.27V v3 No position 7596 ttn.v3 - -120 -12 868.1MHz, SF9BW125, 4/5CR
2026-05-03 09:07:28 6.25°C 103.688% 3.27V v3 No position 7595 ttn.v3 - -118 -12.75 867.9MHz, SF9BW125, 4/5CR
- -116 -12.75 867.9MHz, SF9BW125, 4/5CR
2026-05-03 08:35:10 6°C 96.1875% 3.27V v3 No position 7593 ttn.v3 - -126 -12.5 867.7MHz, SF9BW125, 4/5CR
2026-05-03 07:46:44 5.625°C 89.0625% 3.27V v3 No position 7590 ttn.v3 - -119 -6.75 868.1MHz, SF9BW125, 4/5CR
- -129 -13.25 868.1MHz, SF9BW125, 4/5CR
2026-05-03 07:14:27 5.4375°C 90.6875% 3.27V v3 No position 7588 ttn.v3 - -113 -5.25 868.5MHz, SF9BW125, 4/5CR
- -119 -8.25 868.5MHz, SF9BW125, 4/5CR
- -111 -11 868.5MHz, SF9BW125, 4/5CR
2026-05-03 06:58:18 5.3125°C 89.875% 3.27V v3 No position 7587 ttn.v3 - -118 -5 867.1MHz, SF9BW125, 4/5CR
2026-05-03 06:26:01 5.3125°C 89.1875% 3.27V v3 No position 7585 ttn.v3 - -118 -13.25 867.9MHz, SF9BW125, 4/5CR
- -123 -13.5 867.9MHz, SF9BW125, 4/5CR
2026-05-03 06:12:03 5.25°C 89% 3.27V v3 No position 7584 ttn.v3 - -117 -12 868.1MHz, SF12BW125, 4/5CR
- -118 -14.25 868.1MHz, SF12BW125, 4/5CR
- -129 -17 868.1MHz, SF12BW125, 4/5CR
2026-05-03 05:53:51 5.25°C 89.5% 3.27V v3 No position 7583 ttn.v3 - -117 -12.25 867.7MHz, SF9BW125, 4/5CR
2026-05-03 05:37:42 5.25°C 89.75% 3.27V v3 No position 7582 ttn.v3 - -117 -10.5 868.5MHz, SF9BW125, 4/5CR
2026-05-03 04:49:16 5.25°C 89% 3.27V v3 No position 7579 ttn.v3 - -121 -5.75 867.3MHz, SF9BW125, 4/5CR
2026-05-03 04:17:06 5.375°C 91% 3.27V v3 No position 7577 ttn.v3 - -113 -11.5 868.5MHz, SF9BW125, 4/5CR
2026-05-03 03:28:33 5.8125°C 100.062% 3.27V v3 No position 7574 ttn.v3 - -120 -11.25 868.1MHz, SF9BW125, 4/5CR
- -104 -11.75 868.1MHz, SF9BW125, 4/5CR
2026-05-03 02:56:16 5.8125°C 91% 3.27V v3 No position 7572 ttn.v3 - -119 -8.5 868.5MHz, SF9BW125, 4/5CR
- -114 -9.75 868.5MHz, SF9BW125, 4/5CR
2026-05-03 02:40:07 5.8125°C 95.3125% 3.27V v3 No position 7571 ttn.v3 - -113 -4.25 867.3MHz, SF9BW125, 4/5CR
- -120 -7.5 867.3MHz, SF9BW125, 4/5CR
2026-05-03 02:23:59 5.75°C 97.375% 3.27V v3 No position 7570 ttn.v3 - -117 -7 868.3MHz, SF9BW125, 4/5CR
2026-05-03 02:07:50 5.8125°C 101.062% 3.27V v3 No position 7569 ttn.v3 - -120 -5.25 867.1MHz, SF9BW125, 4/5CR
2026-05-03 01:51:41 5.875°C 102.688% 3.27V v3 No position 7568 ttn.v3 - -119 -11.75 868.1MHz, SF9BW125, 4/5CR
2026-05-03 01:35:32 5.9375°C 102.375% 3.27V v3 No position 7567 ttn.v3 - -119 -12.5 867.9MHz, SF9BW125, 4/5CR
2026-05-03 01:19:24 6.0625°C 101.25% 3.27V v3 No position 7566 ttn.v3 - -115 -12.25 868.5MHz, SF9BW125, 4/5CR
2026-05-03 00:14:49 6.1875°C 105.438% 3.27V v3 No position 7562 ttn.v3 - -120 -11.5 868.1MHz, SF9BW125, 4/5CR
2026-05-02 23:42:31 6.3125°C 112.938% 3.27V v3 No position 7560 ttn.v3 - -122 -11.5 868.5MHz, SF9BW125, 4/5CR
2026-05-02 23:26:22 6.5°C 105.938% 3.27V v3 No position 7559 ttn.v3 - -120 -5.25 867.1MHz, SF9BW125, 4/5CR
2026-05-02 22:54:04 7.125°C 108.875% 3.27V v3 No position 7557 ttn.v3 - -126 -12 867.9MHz, SF9BW125, 4/5CR
- -119 -12.75 867.9MHz, SF9BW125, 4/5CR
2026-05-02 22:37:55 7.125°C 112.5% 3.27V v3 No position 7556 ttn.v3 - -114 -12.75 868.1MHz, SF9BW125, 4/5CR
2026-05-02 22:21:46 7.375°C 100.188% 3.27V v3 No position 7555 ttn.v3 - -115 -9.5 867.7MHz, SF9BW125, 4/5CR
- -125 -14.5 867.7MHz, SF9BW125, 4/5CR
2026-05-02 21:49:27 7.4375°C 88.375% 3.27V v3 No position 7553 ttn.v3 - -109 -9 867.5MHz, SF9BW125, 4/5CR
- -115 -10.75 867.5MHz, SF9BW125, 4/5CR
2026-05-02 21:17:09 7.5°C 93.375% 3.27V v3 No position 7551 ttn.v3 - -121 -13.5 867.3MHz, SF9BW125, 4/5CR
2026-05-02 20:44:51 7.8125°C 22.375% 3.27V v3 No position 7549 ttn.v3 - -119 -6.25 867.1MHz, SF9BW125, 4/5CR
2026-05-02 20:28:42 8.0625°C 4.3125% 3.27V v3 No position 7548 ttn.v3 - -114 -10.25 868.5MHz, SF9BW125, 4/5CR
- -119 -11.25 868.5MHz, SF9BW125, 4/5CR
2026-05-02 20:12:32 8.3125°C 9.25% 3.27V v3 No position 7547 ttn.v3 - -122 -13.25 867.9MHz, SF9BW125, 4/5CR
- -120 -13.5 867.9MHz, SF9BW125, 4/5CR
2026-05-02 19:40:13 8.4375°C 6.3125% 3.27V v3 No position 7545 ttn.v3 - -124 -9.75 867.7MHz, SF9BW125, 4/5CR
2026-05-02 19:24:04 8.5625°C 36.375% 3.27V v3 No position 7544 ttn.v3 - -115 -9.25 868.1MHz, SF9BW125, 4/5CR
- -119 -13 868.1MHz, SF9BW125, 4/5CR
2026-05-02 18:35:35 8.8125°C 26.8125% 3.27V v3 No position 7541 ttn.v3 - -113 -2.25 867.3MHz, SF9BW125, 4/5CR
- -124 -10 867.3MHz, SF9BW125, 4/5CR
2026-05-02 18:03:16 9.6875°C 101.688% 3.27V v3 No position 7539 ttn.v3 - -117 -1.25 867.1MHz, SF9BW125, 4/5CR
- -114 -1.75 867.1MHz, SF9BW125, 4/5CR
2026-05-02 17:47:06 10.125°C 111% 3.27V v3 No position 7538 ttn.v3 - -109 -7.75 868.1MHz, SF9BW125, 4/5CR
- -119 -9.75 868.1MHz, SF9BW125, 4/5CR
- -126 -11.75 868.1MHz, SF9BW125, 4/5CR
2026-05-02 17:30:55 10.125°C 7.5% 3.27V v3 No position 7537 ttn.v3 - -119 -13 867.9MHz, SF9BW125, 4/5CR
2026-05-02 17:14:45 10.25°C 8.6875% 3.27V v3 No position 7536 ttn.v3 - -119 -14.5 868.5MHz, SF9BW125, 4/5CR
2026-05-02 16:58:35 10.3125°C 33.25% 3.27V v3 No position 7535 ttn.v3 - -112 -7 867.7MHz, SF9BW125, 4/5CR
- -112 -11.75 867.7MHz, SF9BW125, 4/5CR
2026-05-02 16:42:25 10.5625°C 56.8125% 3.27V v3 No position 7534 ttn.v3 - -116 -11.25 868.3MHz, SF9BW125, 4/5CR
2026-05-02 16:26:15 10.875°C -1.8125% 3.27V v3 No position 7533 ttn.v3 - -119 -11.25 867.5MHz, SF9BW125, 4/5CR
2026-05-02 16:10:05 10.875°C 3.75% 3.27V v3 No position 7532 ttn.v3 - -119 -7.25 868.1MHz, SF9BW125, 4/5CR
- -107 -7.5 868.1MHz, SF9BW125, 4/5CR
- -125 -11 868.1MHz, SF9BW125, 4/5CR
2026-05-02 15:53:55 10.6875°C 117.438% 3.27V v3 No position 7531 ttn.v3 - -122 -11.75 867.3MHz, SF9BW125, 4/5CR
2026-05-02 14:49:14 10.625°C 114.688% 3.27V v3 No position 7527 ttn.v3 - -119 -12.75 867.9MHz, SF9BW125, 4/5CR
2026-05-02 14:16:53 11°C 84.0625% 3.27V v3 No position 7525 ttn.v3 - -118 -13.25 867.7MHz, SF9BW125, 4/5CR
2026-05-02 14:00:43 11.0625°C 98.25% 3.27V v3 No position 7524 ttn.v3 - -122 -11.75 868.5MHz, SF9BW125, 4/5CR
2026-05-02 13:44:33 10.8125°C 116.875% 3.27V v3 No position 7523 ttn.v3 - -111 -11.25 867.5MHz, SF9BW125, 4/5CR
2026-05-02 12:39:52 10.4375°C 99.3125% 3.27V v3 No position 7519 ttn.v3 - -119 -3.25 867.1MHz, SF9BW125, 4/5CR
- -119 -7 867.1MHz, SF9BW125, 4/5CR
2026-05-02 12:07:32 10.3125°C 104.375% 3.27V v3 No position 7517 ttn.v3 - -115 -9 867.9MHz, SF9BW125, 4/5CR
2026-05-02 10:46:41 10.1875°C 62.375% 3.27V v3 No position 7512 ttn.v3 - -110 0 868.5MHz, SF9BW125, 4/5CR
- -124 -9.5 868.5MHz, SF9BW125, 4/5CR
2026-05-02 10:14:21 10.375°C 9.75% 3.27V v3 No position 7510 ttn.v3 - -113 -2.5 868.3MHz, SF9BW125, 4/5CR
2026-05-02 09:58:11 9.9375°C 114.375% 3.27V v3 No position 7509 ttn.v3 - -121 -9.5 867.1MHz, SF9BW125, 4/5CR
2026-05-02 08:37:22 9.1875°C 93.625% 3.27V v3 No position 7504 ttn.v3 - -117 -6.5 868.3MHz, SF9BW125, 4/5CR
2026-05-02 08:21:12 8.875°C 87.9375% 3.27V v3 No position 7503 ttn.v3 - -116 -8 867.5MHz, SF9BW125, 4/5CR
- -119 -12 867.5MHz, SF9BW125, 4/5CR
2026-05-02 07:48:53 8.8125°C 93.8125% 3.27V v3 No position 7501 ttn.v3 - -113 -2.25 867.3MHz, SF9BW125, 4/5CR
- -121 -6.25 867.3MHz, SF9BW125, 4/5CR
- -113 -12.5 867.3MHz, SF9BW125, 4/5CR
2026-05-02 07:16:34 8.9375°C 107.375% 3.27V v3 No position 7499 ttn.v3 - -119 -10 867.1MHz, SF9BW125, 4/5CR
2026-05-02 06:44:14 9.875°C 52.6875% 3.27V v3 No position 7497 ttn.v3 - -118 -12.75 867.9MHz, SF9BW125, 4/5CR
2026-05-02 06:28:04 10.25°C 106.562% 3.27V v3 No position 7496 ttn.v3 - -118 -6.75 868.1MHz, SF9BW125, 4/5CR
- -115 -7.75 868.1MHz, SF9BW125, 4/5CR
- -124 -9.5 868.1MHz, SF9BW125, 4/5CR
2026-05-02 05:55:44 10.4375°C 108.5% 3.27V v3 No position 7494 ttn.v3 - -111 -2.5 868.5MHz, SF9BW125, 4/5CR
2026-05-02 05:23:24 10.4375°C 101.25% 3.27V v3 No position 7492 ttn.v3 - -111 -2 868.3MHz, SF9BW125, 4/5CR
- -111 -12 868.3MHz, SF9BW125, 4/5CR
2026-05-02 05:07:14 10.5°C 99.1875% 3.27V v3 No position 7491 ttn.v3 - -123 -9.5 867.3MHz, SF9BW125, 4/5CR
2026-05-02 04:51:03 10.4375°C 93.375% 3.27V v3 No position 7490 ttn.v3 - -113 -11.75 868.1MHz, SF9BW125, 4/5CR
2026-05-02 04:20:54 10.5°C 97.375% 3.27V v3 No position 7488 ttn.v3 - -122 -7.5 867.1MHz, SF12BW125, 4/5CR
2026-05-02 03:46:31 10.5625°C 102.688% 3.27V v3 No position 7486 ttn.v3 - -114 -10.5 867.9MHz, SF9BW125, 4/5CR
- -127 -11.5 867.9MHz, SF9BW125, 4/5CR
2026-05-02 03:30:20 10.5625°C 105.062% 3.27V v3 No position 7485 ttn.v3 - -115 -3 868.1MHz, SF9BW125, 4/5CR
- -126 -10.5 868.1MHz, SF9BW125, 4/5CR
2026-05-02 02:58:00 10.6875°C 116.125% 3.27V v3 No position 7483 ttn.v3 - -114 -4.75 868.5MHz, SF9BW125, 4/5CR
- -124 -11.75 868.5MHz, SF9BW125, 4/5CR
2026-05-02 02:09:29 10.875°C 2.375% 3.27V v3 No position 7480 ttn.v3 - -123 -7.75 867.3MHz, SF9BW125, 4/5CR
- -117 -10.5 867.3MHz, SF9BW125, 4/5CR
2026-05-02 01:53:19 10.875°C 8% 3.27V v3 No position 7479 ttn.v3 - -116 -8 868.1MHz, SF9BW125, 4/5CR
2026-05-02 01:37:09 10.9375°C 9.8125% 3.27V v3 No position 7478 ttn.v3 - -116 -7 867.1MHz, SF9BW125, 4/5CR
- -124 -10.25 867.1MHz, SF9BW125, 4/5CR
2026-05-02 01:04:48 11.25°C 9.1875% 3.27V v3 No position 7476 ttn.v3 - -120 -12 867.9MHz, SF9BW125, 4/5CR
2026-05-02 00:16:16 11.625°C -5.1875% 3.27V v3 No position 7473 ttn.v3 - -120 -12.75 868.1MHz, SF9BW125, 4/5CR
2026-05-01 23:27:45 11.5625°C 10.0625% 3.27V v3 No position 7470 ttn.v3 - -120 -4.75 867.3MHz, SF9BW125, 4/5CR
- -119 -7 867.3MHz, SF9BW125, 4/5CR
- -115 -8 867.3MHz, SF9BW125, 4/5CR
2026-05-01 23:11:34 11.5625°C -0.1875% 3.27V v3 No position 7469 ttn.v3 - -114 -8.5 868.3MHz, SF9BW125, 4/5CR
2026-05-01 22:23:03 11.3125°C 89.3125% 3.27V v3 No position 7466 ttn.v3 - -120 -12.5 867.9MHz, SF9BW125, 4/5CR
2026-05-01 21:34:32 11°C 67.5% 3.27V v3 No position 7463 ttn.v3 - -114 -10.75 868.3MHz, SF9BW125, 4/5CR
2026-05-01 19:57:27 15.75°C 66.1875% 3.27V v3 No position 7457 ttn.v3 - -113 -5.75 868.3MHz, SF9BW125, 4/5CR
2026-05-01 19:41:15 16.0625°C 67.125% 3.27V v3 No position 7456 ttn.v3 - -120 -12.25 867.9MHz, SF9BW125, 4/5CR
2026-05-01 19:25:03 17.25°C 65.5% 3.27V v3 No position 7455 ttn.v3 - -115 -11 868.1MHz, SF9BW125, 4/5CR
2026-05-01 19:08:57 17°C 68.1875% 3.27V v3 No position 7454 ttn.v3 - -119 -13 867.7MHz, SF9BW125, 4/5CR
2026-05-01 18:52:38 19.6875°C 61.1875% 3.27V v3 No position 7453 ttn.v3 - -114 -11.25 867.5MHz, SF9BW125, 4/5CR
2026-05-01 18:36:24 20.125°C 60.875% 3.27V v3 No position 7452 ttn.v3 - -119 -12 868.1MHz, SF9BW125, 4/5CR
2026-05-01 18:20:10 18.5°C 67.3125% 3.27V v3 No position 7451 ttn.v3 - -113 -11.25 867.3MHz, SF9BW125, 4/5CR
- -119 -12.75 867.3MHz, SF9BW125, 4/5CR
2026-05-01 17:47:44 20.625°C 56.6875% 3.27V v3 No position 7449 ttn.v3 - -121 -8.25 867.1MHz, SF9BW125, 4/5CR
- -118 -13.75 867.1MHz, SF9BW125, 4/5CR
2026-05-01 17:15:16 21.5°C 54.375% 3.27V v3 No position 7447 ttn.v3 - -116 -7 867.9MHz, SF9BW125, 4/5CR
- -119 -13 867.9MHz, SF9BW125, 4/5CR
2026-05-01 16:59:01 21.8125°C 54.6875% 3.27V v3 No position 7446 ttn.v3 - -119 -12.75 868.1MHz, SF9BW125, 4/5CR
2026-05-01 16:42:47 21.0625°C 57.6875% 3.27V v3 No position 7445 ttn.v3 - -122 -9.75 867.7MHz, SF9BW125, 4/5CR
2026-05-01 15:37:53 19.4375°C 62.8125% 3.27V v3 No position 7441 ttn.v3 - -125 -10.5 867.3MHz, SF9BW125, 4/5CR
2026-05-01 15:05:28 16.75°C 69.5625% 3.27V v3 No position 7439 ttn.v3 - -123 -7.25 867.1MHz, SF9BW125, 4/5CR
2026-05-01 14:33:01 20.0625°C 53.625% 3.27V v3 No position 7437 ttn.v3 - -117 -12.5 867.9MHz, SF9BW125, 4/5CR
2026-05-01 13:44:21 19.875°C 53.375% 3.27V v3 No position 7434 ttn.v3 - -113 -10.5 868.1MHz, SF9BW125, 4/5CR
2026-05-01 12:23:16 17.625°C 56.625% 3.27V v3 No position 7429 ttn.v3 - -121 -5.75 867.1MHz, SF9BW125, 4/5CR
- -117 -11.5 867.1MHz, SF9BW125, 4/5CR
2026-05-01 11:50:51 16.25°C 58.875% 3.27V v3 No position 7427 ttn.v3 - -116 -6 867.9MHz, SF9BW125, 4/5CR
- -119 -12 867.9MHz, SF9BW125, 4/5CR
2026-05-01 11:34:39 15.5625°C 58.5% 3.27V v3 No position 7426 ttn.v3 - -114 -14 868.5MHz, SF9BW125, 4/5CR
2026-05-01 11:18:28 15.125°C 59.125% 3.27V v3 No position 7425 ttn.v3 - -111 -6 867.7MHz, SF9BW125, 4/5CR
2026-05-01 11:02:16 14.6875°C 60.1875% 3.27V v3 No position 7424 ttn.v3 - -113 -5 868.3MHz, SF9BW125, 4/5CR
2026-05-01 10:29:53 13.9375°C 63.6875% 3.27V v3 No position 7422 ttn.v3 - -126 -16 868.1MHz, SF9BW125, 4/5CR
2026-05-01 10:13:42 13.5625°C 65.5625% 3.27V v3 No position 7421 ttn.v3 - -123 -7.5 867.3MHz, SF9BW125, 4/5CR
- -124 -12 867.3MHz, SF9BW125, 4/5CR
2026-05-01 09:41:20 12.8125°C 69.5625% 3.27V v3 No position 7419 ttn.v3 - -114 -13.25 867.1MHz, SF9BW125, 4/5CR
- -126 -14.75 867.1MHz, SF9BW125, 4/5CR
2026-05-01 09:25:09 12.5°C 70.0625% 3.27V v3 No position 7418 ttn.v3 - -110 -6.5 868.3MHz, SF9BW125, 4/5CR
2026-05-01 09:08:58 12.3125°C 69.875% 3.27V v3 No position 7417 ttn.v3 - -117 -9.75 867.9MHz, SF9BW125, 4/5CR
2026-05-01 08:52:47 12°C 71.5% 3.27V v3 No position 7416 ttn.v3 - -109 -9 868.1MHz, SF9BW125, 4/5CR
2026-05-01 08:36:37 11.75°C 75% 3.27V v3 No position 7415 ttn.v3 - -111 -5 867.7MHz, SF9BW125, 4/5CR
2026-05-01 08:20:26 11.4375°C 74.1875% 3.27V v3 No position 7414 ttn.v3 - -113 -10.5 868.5MHz, SF9BW125, 4/5CR
2026-05-01 07:48:06 10.4375°C 89.5625% 3.27V v3 No position 7412 ttn.v3 - -114 -10.75 868.3MHz, SF9BW125, 4/5CR
2026-05-01 07:15:46 9°C 12.25% 3.27V v3 No position 7410 ttn.v3 - -127 -13 868.1MHz, SF9BW125, 4/5CR
2026-05-01 06:59:36 8.8125°C 13% 3.27V v3 No position 7409 ttn.v3 - -123 -7 867.1MHz, SF9BW125, 4/5CR
- -121 -8.25 867.1MHz, SF9BW125, 4/5CR
- -116 -10.5 867.1MHz, SF9BW125, 4/5CR
2026-05-01 06:43:27 8.75°C 13.125% 3.27V v3 No position 7408 ttn.v3 - -112 -7.25 868.5MHz, SF9BW125, 4/5CR
- -108 -11.5 868.5MHz, SF9BW125, 4/5CR
- -124 -14 868.5MHz, SF9BW125, 4/5CR
2026-05-01 06:27:17 8.4375°C 9.125% 3.27V v3 No position 7407 ttn.v3 - -116 -6.5 867.9MHz, SF9BW125, 4/5CR
- -126 -11.25 867.9MHz, SF9BW125, 4/5CR
- -120 -12 867.9MHz, SF9BW125, 4/5CR
- -111 -12.5 867.9MHz, SF9BW125, 4/5CR
2026-05-01 06:11:08 8.3125°C 5.0625% 3.27V v3 No position 7406 ttn.v3 - -113 -10.75 868.3MHz, SF9BW125, 4/5CR
2026-05-01 05:54:59 8°C 89.1875% 3.27V v3 No position 7405 ttn.v3 - -117 -9 867.7MHz, SF9BW125, 4/5CR
2026-05-01 05:06:31 7.9375°C 7.9375% 3.27V v3 No position 7402 ttn.v3 - -122 -11.25 868.5MHz, SF9BW125, 4/5CR
2026-05-01 04:50:21 7.625°C 109.75% 3.27V v3 No position 7401 ttn.v3 - -126 -10.5 867.3MHz, SF9BW125, 4/5CR
2026-05-01 04:34:12 7.6875°C 102.125% 3.27V v3 No position 7400 ttn.v3 - -125 -13.5 868.3MHz, SF9BW125, 4/5CR
2026-05-01 04:18:03 7.625°C 97.1875% 3.27V v3 No position 7399 ttn.v3 - -121 -5.25 867.1MHz, SF9BW125, 4/5CR
- -116 -12.25 867.1MHz, SF9BW125, 4/5CR
2026-05-01 03:45:45 7.375°C 93.125% 3.27V v3 No position 7397 ttn.v3 - -116 -7.25 867.9MHz, SF9BW125, 4/5CR
2026-05-01 03:13:27 7.625°C 87.8125% 3.27V v3 No position 7395 ttn.v3 - -119 -10.75 867.7MHz, SF9BW125, 4/5CR
2026-05-01 02:27:10 7.6875°C 86.6875% 3.27V v3 No position 7392 ttn.v3 - -116 -9.5 868.1MHz, SF12BW125, 4/5CR
- -119 -13.25 868.1MHz, SF12BW125, 4/5CR
2026-05-01 02:08:57 7.75°C 115.875% 3.27V v3 No position 7391 ttn.v3 - -116 -12 867.3MHz, SF9BW125, 4/5CR
2026-05-01 01:36:39 7.75°C 7.6875% 3.27V v3 No position 7389 ttn.v3 - -123 -12 867.1MHz, SF9BW125, 4/5CR
2026-05-01 01:04:20 7.75°C 109% 3.27V v3 No position 7387 ttn.v3 - -120 -11.5 867.9MHz, SF9BW125, 4/5CR
2026-05-01 00:32:02 7.8125°C 104.75% 3.27V v3 No position 7385 ttn.v3 - -122 -10.25 867.7MHz, SF9BW125, 4/5CR
- -127 -12 867.7MHz, SF9BW125, 4/5CR
- -113 -12.25 867.7MHz, SF9BW125, 4/5CR
2026-05-01 00:15:53 7.75°C 99.25% 3.27V v3 No position 7384 ttn.v3 - -113 -9.5 868.5MHz, SF9BW125, 4/5CR
2026-04-30 23:59:44 8.125°C 87.8125% 3.27V v3 No position 7383 ttn.v3 - -115 -12 867.5MHz, SF9BW125, 4/5CR
2026-04-30 23:27:25 8.375°C 88.1875% 3.27V v3 No position 7381 ttn.v3 - -125 -11.25 867.3MHz, SF9BW125, 4/5CR
2026-04-30 23:11:16 8.6875°C 90.4375% 3.27V v3 No position 7380 ttn.v3 - -115 -9.5 868.1MHz, SF9BW125, 4/5CR
2026-04-30 22:38:57 8.5°C 88.4375% 3.27V v3 No position 7378 ttn.v3 - -113 -2 868.5MHz, SF9BW125, 4/5CR
2026-04-30 22:22:47 8.6875°C 91.0625% 3.27V v3 No position 7377 ttn.v3 - -113 -9.5 867.9MHz, SF9BW125, 4/5CR
- -120 -11.25 867.9MHz, SF9BW125, 4/5CR
2026-04-30 22:06:37 8.6875°C 91.875% 3.27V v3 No position 7376 ttn.v3 - -114 -7.5 868.3MHz, SF9BW125, 4/5CR
2026-04-30 21:50:28 9°C 97.8125% 3.27V v3 No position 7375 ttn.v3 - -113 -11.75 867.7MHz, SF9BW125, 4/5CR
- -117 -14.75 867.7MHz, SF9BW125, 4/5CR
2026-04-30 21:34:18 9.6875°C -1.1875% 3.27V v3 No position 7374 ttn.v3 - -118 -12.75 868.1MHz, SF9BW125, 4/5CR
2026-04-30 20:45:47 13.0625°C 0.6875% 3.27V v3 No position 7371 ttn.v3 - -114 -12.75 867.3MHz, SF9BW125, 4/5CR
2026-04-30 20:13:24 14.375°C 11.3125% 3.27V v3 No position 7369 ttn.v3 - -120 -8.25 867.1MHz, SF9BW125, 4/5CR
2026-04-30 19:57:12 15.125°C 9.6875% 3.27V v3 No position 7368 ttn.v3 - -120 -11.5 868.1MHz, SF9BW125, 4/5CR
2026-04-30 19:41:00 15.4375°C 6.75% 3.27V v3 No position 7367 ttn.v3 - -120 -11.5 867.9MHz, SF9BW125, 4/5CR
- -116 -11.5 867.9MHz, SF9BW125, 4/5CR
2026-04-30 19:24:49 13.75°C 8.3125% 3.27V v3 No position 7366 ttn.v3 - -113 -13.75 868.5MHz, SF9BW125, 4/5CR
- -113 -15.5 868.5MHz, SF9BW125, 4/5CR
2026-04-30 19:08:37 15°C 9% 3.27V v3 No position 7365 ttn.v3 - -107 -6.75 867.7MHz, SF9BW125, 4/5CR
- -119 -12.75 867.7MHz, SF9BW125, 4/5CR
2026-04-30 18:52:26 14.5°C 10.6875% 3.27V v3 No position 7364 ttn.v3 - -118 -9.75 868.3MHz, SF9BW125, 4/5CR
- -112 -12.5 868.3MHz, SF9BW125, 4/5CR
2026-04-30 18:36:14 15.4375°C 0.375% 3.27V v3 No position 7363 ttn.v3 - -115 -9.75 867.5MHz, SF9BW125, 4/5CR
2026-04-30 18:20:02 16.125°C 116.938% 3.27V v3 No position 7362 ttn.v3 - -114 -7 868.1MHz, SF9BW125, 4/5CR
2026-04-30 18:03:50 16°C 116.375% 3.27V v3 No position 7361 ttn.v3 - -114 -11.75 867.3MHz, SF9BW125, 4/5CR
2026-04-30 17:47:37 17.1875°C 91.5625% 3.27V v3 No position 7360 ttn.v3 - -112 -3.25 868.5MHz, SF9BW125, 4/5CR
- -123 -9.25 868.5MHz, SF9BW125, 4/5CR
2026-04-30 17:31:24 18.3125°C 79.625% 3.27V v3 No position 7359 ttn.v3 - -121 -6.75 867.1MHz, SF9BW125, 4/5CR
- -113 -10.25 867.1MHz, SF9BW125, 4/5CR
2026-04-30 17:15:12 17.3125°C 90.0625% 3.27V v3 No position 7358 ttn.v3 - -117 -7.25 868.3MHz, SF9BW125, 4/5CR
2026-04-30 16:58:59 16.1875°C 100.188% 3.27V v3 No position 7357 ttn.v3 - -116 -10 867.9MHz, SF9BW125, 4/5CR
- -119 -12.75 867.9MHz, SF9BW125, 4/5CR
2026-04-30 16:42:47 16.125°C 103.5% 3.27V v3 No position 7356 ttn.v3 - -114 -5.5 868.1MHz, SF9BW125, 4/5CR
2026-04-30 15:54:09 19.5625°C 74.9375% 3.27V v3 No position 7353 ttn.v3 - -112 -11 867.5MHz, SF9BW125, 4/5CR
- -116 -11.25 867.5MHz, SF9BW125, 4/5CR
2026-04-30 15:05:29 19.625°C 76.3125% 3.27V v3 No position 7350 ttn.v3 - -112 -8 868.1MHz, SF9BW125, 4/5CR
- -125 -11 868.1MHz, SF9BW125, 4/5CR
2026-04-30 14:16:50 18.1875°C 98.25% 3.27V v3 No position 7347 ttn.v3 - -119 -12 867.9MHz, SF9BW125, 4/5CR
2026-04-30 14:00:38 18°C 111.5% 3.27V v3 No position 7346 ttn.v3 - -115 -8.5 868.3MHz, SF9BW125, 4/5CR
2026-04-30 12:55:50 15.5°C 7.0625% 3.27V v3 No position 7342 ttn.v3 - -113 -6.25 868.5MHz, SF9BW125, 4/5CR
- -124 -14.75 868.5MHz, SF9BW125, 4/5CR
2026-04-30 12:23:28 12.4375°C 53.3125% 3.27V v3 No position 7340 ttn.v3 - -112 -3 868.3MHz, SF9BW125, 4/5CR
2026-04-30 12:07:18 12°C 37.875% 3.27V v3 No position 7339 ttn.v3 - -117 -8.25 867.1MHz, SF9BW125, 4/5CR
- -125 -10.5 867.1MHz, SF9BW125, 4/5CR
2026-04-30 11:51:07 10.5°C 113.812% 3.27V v3 No position 7338 ttn.v3 - -119 -12.5 868.1MHz, SF9BW125, 4/5CR
2026-04-30 11:34:58 9.875°C 91.0625% 3.27V v3 No position 7337 ttn.v3 - -119 -11.5 867.9MHz, SF9BW125, 4/5CR
- -113 -13 867.9MHz, SF9BW125, 4/5CR
2026-04-30 11:18:48 9°C -0.5625% 3.27V v3 No position 7336 ttn.v3 - -113 -10 868.5MHz, SF9BW125, 4/5CR
2026-04-30 11:02:38 8.25°C 44.75% 3.27V v3 No position 7335 ttn.v3 - -116 -5.5 867.7MHz, SF9BW125, 4/5CR
2026-04-30 10:46:29 8.125°C 53.0625% 3.27V v3 No position 7334 ttn.v3 - -114 -3.25 868.3MHz, SF9BW125, 4/5CR
- -111 -12.75 868.3MHz, SF9BW125, 4/5CR
2026-04-30 08:53:25 7.5625°C 49% 3.27V v3 No position 7327 ttn.v3 - -121 -9.5 867.9MHz, SF9BW125, 4/5CR
2026-04-30 08:37:15 7.125°C 25.6875% 3.27V v3 No position 7326 ttn.v3 - -117 -9.75 868.1MHz, SF9BW125, 4/5CR
- -114 -11.5 868.1MHz, SF9BW125, 4/5CR
- -117 -13 868.1MHz, SF9BW125, 4/5CR
2026-04-30 08:04:57 7.0625°C 21.875% 3.27V v3 No position 7324 ttn.v3 - -112 -6.5 868.5MHz, SF9BW125, 4/5CR
- -121 -10.25 868.5MHz, SF9BW125, 4/5CR
2026-04-30 07:48:49 7.125°C 16.3125% 3.27V v3 No position 7323 ttn.v3 - -114 -15 867.5MHz, SF9BW125, 4/5CR
2026-04-30 07:16:30 7°C 3% 3.27V v3 No position 7321 ttn.v3 - -121 -6.25 867.3MHz, SF9BW125, 4/5CR
2026-04-30 07:00:21 6.625°C 8.75% 3.27V v3 No position 7320 ttn.v3 - -120 -11.5 868.1MHz, SF9BW125, 4/5CR
2026-04-30 06:44:12 6.625°C 6.0625% 3.27V v3 No position 7319 ttn.v3 - -122 -7.75 867.1MHz, SF9BW125, 4/5CR
- -118 -15.75 867.1MHz, SF9BW125, 4/5CR
2026-04-30 06:28:03 6.625°C 3.9375% 3.27V v3 No position 7318 ttn.v3 - -113 -4 868.5MHz, SF9BW125, 4/5CR
- -123 -11 868.5MHz, SF9BW125, 4/5CR
2026-04-30 06:11:54 6.6875°C 6.625% 3.27V v3 No position 7317 ttn.v3 - -117 -10 867.9MHz, SF9BW125, 4/5CR
2026-04-30 05:39:37 6.5°C 6% 3.27V v3 No position 7315 ttn.v3 - -120 -8 867.7MHz, SF9BW125, 4/5CR
2026-04-30 04:35:01 6.6875°C 2.6875% 3.27V v3 No position 7311 ttn.v3 - -119 -12.5 867.3MHz, SF9BW125, 4/5CR

Message count: 200
Node count: 1

Messages per node

Number of messages in list aboveNodes
200

Statistics per gateway

GatewayNumber of messagesNumber of nodesNodes
911
791
611
471
161

Filter by dataset